This demonstration page uses our WeatherBlox Daily Observations layout. Learn more.

Left ArrowRight Arrow

44.8408, -93.29828

Hourly Observations for August 7, 2017

Temp ( °F °C ) Dew Point ( °F °C ) Humidity (%) Winds ( mph kmh ) Pressure ( in mb ) Visibility ( mi km ) Precip ( " mm )
12:53 am 00:53 Mostly Cloudy 62 16.7 59 15 90 90 E 5 7 30.08 1019 10 16 0.00 0.00
1:53 am 01:53 Partly Cloudy 61 16.1 58 14.4 90 90 Calm 30.08 1019 9 14 0.00 0.00
2:51 am 02:51 Partly Cloudy with Mist and Fog 61 16 57 14 88 88 Calm 30.06 1018 2 2 0.00 0.00
2:53 am 02:53 Mostly Clear 60 15.6 58 14.4 93 93 Calm 30.09 1019 7 11 0.00 0.00
3:14 am 03:14 Mostly Clear 60 15.6 58 14.4 93 93 Calm 30.06 1018 7 11 0.00 0.00
3:21 am 03:21 Mostly Clear 60 15.6 57 13.9 90 90 Calm 30.06 1018 7 11 0.00 0.00
3:53 am 03:53 Mostly Clear 60 15.6 57 13.9 90 90 Calm 30.09 1019 7 11 0.00 0.00
4:15 am 04:15 Clear with Mist and Fog 58 14.4 56 13.3 93 93 Calm 30.06 1018 1 2 0.00 0.00
4:22 am 04:22 Clear with Mist and Fog 58 14.4 56 13.3 93 93 Calm 30.06 1018 6 10 0.00 0.00
4:34 am 04:34 Partly Cloudy 58 14.4 56 13.3 93 93 Calm 30.06 1018 7 11 0.00 0.00
4:43 am 04:43 Clear 58 14.4 56 13.3 93 93 Calm 30.06 1018 7 11 0.00 0.00
4:51 am 04:51 Clear 57 14 55 13 94 94 Calm 30.09 1019 7 11 0.00 0.00
4:53 am 04:53 Clear 57 13.9 55 12.8 93 93 Calm 30.10 1019 7 11 0.00 0.00
5:43 am 05:43 Clear with Mist and Fog 58 14.4 56 13.3 93 93 Calm 30.12 1020 1 2 0.00 0.00
5:50 am 05:50 Clear 57 14 55 13 94 94 Calm 30.12 1020 7 11 0.00 0.00
5:53 am 05:53 Clear 58 14.4 56 13.3 93 93 Calm 30.11 1020 7 11 0.00 0.00
6:23 am 06:23 Sunny with Mist and Fog 59 15 57 13.9 93 93 Calm 30.09 1019 5 8 0.00 0.00
6:33 am 06:33 Sunny with Mist and Fog 59 15 57 13.9 93 93 SW 3 6 30.09 1019 5 8 0.00 0.00
6:53 am 06:53 Mostly Sunny 59 15 57 13.9 93 93 Calm 30.13 1020 7 11 0.00 0.00
7:02 am 07:02 Partly Cloudy with Patchy Fog 60 15.6 56 13.3 86 86 VRB 3 6 30.09 1019 9 14 0.00 0.00
7:17 am 07:17 Partly Cloudy with Patchy Fog 61 16.1 57 13.9 87 87 VRB 3 6 30.12 1020 9 14 0.00 0.00
7:53 am 07:53 Partly Cloudy with Patchy Fog 62 16.7 58 14.4 86 86 Calm 30.14 1021 9 14 0.00 0.00
8:53 am 08:53 Sunny with Patchy Fog 65 18.3 59 15 81 81 Calm 30.14 1021 9 14 0.00 0.00
9:53 am 09:53 Sunny 68 20 57 13.9 68 68 ESE 5 7 30.15 1021 10 16 0.00 0.00
10:53 am 10:53 Sunny 72 22.2 56 13.3 57 57 Calm 30.15 1021 10 16 0.00 0.00
11:53 am 11:53 Mostly Sunny 74 23.3 56 13.3 54 54 SSE 3 6 30.15 1021 10 16 0.00 0.00
12:53 pm 12:53 Partly Cloudy 78 25.6 53 11.7 42 42 N 3 6 30.14 1021 10 16 0.00 0.00
1:53 pm 13:53 Partly Cloudy 79 26.1 54 12.2 42 42 Calm 30.14 1021 10 16 0.00 0.00
2:53 pm 14:53 Partly Cloudy 77 25 50 10 39 39 Calm 30.13 1020 10 16 0.00 0.00
3:53 pm 15:53 Partly Cloudy 80 26.7 52 11.1 38 38 Calm 30.13 1020 10 16 0.00 0.00
4:53 pm 16:53 Partly Cloudy 81 27.2 51 10.6 35 35 WNW 6 9 30.12 1020 10 16 0.00 0.00
5:53 pm 17:53 Partly Cloudy 81 27.2 51 10.6 35 35 N 7 11 30.11 1020 10 16 0.00 0.00
6:53 pm 18:53 Mostly Sunny 78 25.6 50 10 37 37 WNW 9 15 30.11 1020 10 16 0.00 0.00
7:53 pm 19:53 Mostly Sunny 76 24.4 52 11.1 43 43 NW 7 11 30.11 1020 10 16 0.00 0.00
8:53 pm 20:53 Mostly Clear 76 24.4 52 11.1 43 43 W 6 9 30.12 1020 10 16 0.00 0.00
9:53 pm 21:53 Mostly Clear 72 22.2 53 11.7 52 52 W 3 6 30.14 1021 10 16 0.00 0.00
10:53 pm 22:53 Clear 70 21.1 54 12.2 57 57 W 6 9 30.14 1021 10 16 0.00 0.00
11:53 pm 23:53 Clear 68 20 55 12.8 63 63 Calm 30.15 1021 10 16 0.00 0.00

Powered by AerisWeather